Theta_e
316 316 316 315 315 315 315 315 315 315 315 315 315 315 315 316 316 316 316 317 317 317 317 318 319 320 317 309 311 318 346 351 343 326 317 315 312 313 313 316 315 316 321 325 326 328 331
316 315 315 315 315 314 314 315 315 315 315 315 315 315 315 315 315 316 317 317 316 316 317 318 320 320 313 304 316 321 333 335 331 321 316 316 314 317 316 314 316 320 323 326 327 328 330
316 315 315 314 314 314 314 314 314 314 314 314 314 314 315 315 315 315 316 316 315 315 317 320 322 319 310 309 317 317 322 326 327 320 315 316 317 317 316 313 319 325 321 325 325 327 326
315 315 315 315 314 314 314 314 313 313 313 313 314 314 315 315 315 315 315 314 314 316 320 323 322 320 309 317 320 320 321 317 323 319 319 318 317 314 314 319 324 321 321 316 323 325 327
315 315 315 314 313 313 313 313 313 313 313 314 314 313 314 315 315 314 313 313 316 320 321 324 318 313 310 326 319 322 322 315 320 318 318 316 317 311 312 317 317 317 312 315 319 326 325
315 315 314 314 314 313 313 313 312 313 314 314 314 314 313 314 313 312 311 313 314 318 323 323 322 313 317 314 317 320 321 317 314 314 313 311 311 307 309 313 305 312 313 316 317 322 324
314 314 313 314 313 313 313 313 312 312 313 313 313 313 313 312 311 310 310 306 308 308 311 312 312 313 313 316 318 318 318 313 313 312 306 308 304 302 307 314 316 317 316 315 320 324 321
314 313 313 313 313 312 312 312 312 312 312 312 313 312 312 311 310 310 305 302 302 302 297 303 304 307 312 315 309 315 318 312 309 305 305 304 301 306 309 312 314 317 315 315 319 323 322
314 313 313 313 312 312 312 312 312 313 313 313 312 311 311 309 309 306 301 303 305 305 297 301 304 304 307 309 307 309 316 312 309 304 303 302 304 307 307 307 307 315 315 316 316 320 323
314 314 314 313 313 313 312 312 312 312 312 312 312 311 310 307 303 302 302 306 306 305 298 303 304 309 310 311 306 313 317 314 307 306 303 303 306 305 305 306 309 307 317 318 317 316 310
314 314 314 313 313 313 313 312 311 311 311 311 311 310 309 307 303 301 303 306 306 305 290 304 306 315 312 309 309 309 318 314 308 306 305 304 302 303 303 306 310 309 315 316 318 316 314
313 313 313 313 313 313 312 311 311 311 311 311 310 309 309 305 304 305 307 305 305 299 290 301 309 307 306 308 308 311 312 315 313 308 305 307 307 307 307 310 311 312 311 311 315 314 305
313 313 313 312 312 313 312 311 311 311 310 310 308 307 307 306 301 305 305 301 295 291 302 300 303 304 304 305 306 308 307 306 305 301 301 305 305 308 309 306 311 311 309 302 301 302 301
313 312 312 313 312 312 312 311 311 311 310 309 306 306 306 307 308 307 302 296 289 295 298 303 303 303 301 304 305 305 305 303 309 308 303 299 297 304 308 307 306 307 308 302 296 297 301
312 312 312 312 311 312 312 312 311 310 310 308 306 304 302 305 307 305 295 288 291 295 302 300 302 300 300 302 303 304 304 303 307 309 302 300 300 304 307 309 311 307 303 311 304 301 302
312 311 311 311 311 311 311 311 311 310 309 307 302 298 298 308 308 300 292 289 292 300 303 303 298 301 298 300 300 302 302 306 306 309 312 304 298 304 305 309 309 308 310 301 303 298 295
313 312 311 311 311 311 310 310 311 310 308 307 300 293 301 308 303 296 289 289 293 298 302 300 300 299 300 299 300 299 300 304 306 306 311 308 303 301 304 303 303 304 303 304 307 304 300
312 312 311 310 310 310 309 310 310 308 307 303 297 288 304 306 296 293 290 293 295 297 299 299 300 301 300 300 299 299 299 303 307 306 303 307 305 300 301 307 307 307 305 306 302 301 302
311 311 310 311 310 309 309 310 309 308 307 301 293 293 303 302 292 293 297 297 300 297 298 297 297 300 301 299 297 299 301 306 307 306 306 304 302 298 300 304 305 303 305 307 307 306 305
310 310 310 310 309 308 309 310 309 308 307 303 294 289 299 299 297 294 293 295 296 303 302 300 299 301 299 297 300 298 300 305 307 306 319 311 304 302 297 301 305 302 302 304 304 301 302
310 310 309 309 309 308 308 310 309 308 307 302 295 293 296 293 295 296 295 294 293 294 302 302 302 299 299 297 299 298 302 303 306 312 312 312 305 305 306 307 305 304 302 303 302 305 302
309 309 309 309 309 308 308 309 309 308 306 299 293 293 294 293 295 294 294 293 294 297 298 299 300 303 304 301 303 300 303 304 304 309 308 308 304 305 304 307 305 302 304 304 304 305 305
308 308 309 308 309 309 309 309 309 308 304 298 298 298 294 291 291 291 292 293 294 296 299 300 299 298 299 304 308 309 309 308 309 309 312 310 305 301 299 305 302 298 304 305 306 308 307
308 308 308 308 308 308 308 308 309 308 306 302 298 296 291 286 290 291 294 295 294 295 294 297 298 297 302 308 308 310 307 308 310 311 314 310 307 303 301 300 292 304 310 309 307 308 310
308 308 309 308 308 308 308 308 308 308 307 304 301 297 292 286 290 290 292 294 296 297 296 296 299 303 306 303 303 304 304 305 307 311 312 315 308 304 301 299 302 305 311 306 304 307 313
308 309 309 309 308 308 308 308 307 308 308 305 302 301 295 287 286 291 292 293 292 293 295 297 303 305 308 306 303 299 298 303 303 307 312 311 312 308 301 297 295 306 312 316 316 304 317
308 308 308 309 309 308 308 308 308 308 307 306 302 302 297 289 292 294 290 292 296 295 293 296 298 300 309 305 300 299 300 307 302 303 306 309 309 303 302 299 304 312 315 316 304 308 317
308 308 308 308 308 308 308 308 307 307 307 304 303 303 299 293 293 295 296 292 295 295 290 296 296 301 303 302 303 303 302 307 306 309 308 307 305 304 305 300 298 315 314 310 315 319 319
307 307 308 307 308 307 307 307 306 306 307 306 300 301 304 295 293 299 299 300 300 299 295 298 298 296 302 301 303 303 305 308 308 303 312 305 311 305 305 305 314 314 315 317 318 319 321
Wind_Speed
20 20 20 20 20 20 20 21 21 21 22 22 22 23 23 24 24 24 24 23 23 24 21 18 17 12 6 3 12 3 5 3 9 13 14 12 12 8 10 7 6 4 4 5 4 14 15
18 20 20 20 21 21 21 22 21 21 22 22 22 23 23 24 24 26 25 23 23 23 22 19 14 6 4 9 2 2 4 6 5 13 14 11 10 6 6 5 7 5 5 8 9 14 16
17 17 18 19 19 20 21 22 23 23 23 23 23 23 23 24 25 27 27 26 26 24 22 16 8 6 4 17 5 3 4 3 6 13 18 9 4 6 6 7 6 12 9 10 11 14 9
17 17 18 19 20 20 20 20 21 22 23 24 24 25 25 26 26 27 28 27 27 23 15 3 10 4 9 2 2 6 6 4 5 4 11 5 1 4 0 7 6 5 6 7 8 13 9
17 17 18 20 20 21 21 22 22 22 22 22 23 25 26 27 28 27 28 30 20 5 3 10 5 4 9 3 4 0 7 5 7 3 1 4 3 1 4 10 7 3 7 10 10 11 9
18 18 19 19 19 20 20 21 22 22 22 23 23 23 24 25 27 29 31 22 4 2 4 5 5 4 6 3 1 1 3 11 5 8 4 3 3 6 5 10 13 12 7 8 8 13 9
17 18 19 19 20 20 21 21 22 23 23 23 24 25 25 26 27 27 17 3 2 3 4 7 2 5 3 3 2 4 4 5 6 4 9 4 9 15 17 15 12 14 15 16 9 10 11
17 17 18 17 18 19 21 21 22 23 24 24 24 24 26 28 28 25 5 2 6 1 11 13 20 16 14 4 5 7 7 8 7 9 7 6 15 14 14 13 9 14 15 14 7 12 12
17 18 18 17 18 18 19 20 21 22 23 23 25 25 25 29 31 3 5 4 4 0 5 10 6 6 6 15 12 13 14 8 11 10 13 13 8 10 12 12 12 12 17 13 14 12 4
17 17 16 17 17 17 18 19 20 21 22 22 24 25 23 31 2 7 4 3 6 3 4 6 5 5 7 8 8 15 17 9 5 15 12 10 8 17 13 18 15 17 14 16 16 12 13
17 17 17 18 19 19 17 18 20 21 22 23 23 24 21 16 9 6 3 7 6 4 6 2 3 3 5 7 1 9 15 7 12 9 7 9 11 14 21 19 15 11 12 18 17 17 9
18 17 18 19 19 20 19 18 21 22 23 24 25 24 22 2 4 9 11 9 4 3 10 3 2 5 4 7 2 5 10 7 8 12 4 14 3 14 15 17 18 10 12 6 4 9 10
18 18 18 19 18 18 18 16 20 23 25 26 28 26 18 6 5 2 6 3 4 8 1 4 5 3 7 5 6 8 16 16 14 17 15 12 14 7 10 18 15 14 16 8 9 8 9
17 18 17 17 16 17 18 16 18 20 23 27 31 30 4 6 5 7 4 4 11 5 12 1 1 6 5 2 5 13 14 19 18 18 13 16 16 17 14 17 14 20 20 11 17 10 10
17 17 18 18 18 18 18 19 18 19 22 26 27 4 4 2 8 3 4 12 9 9 5 5 7 10 7 3 5 11 12 20 21 21 15 15 18 4 11 9 18 15 14 16 8 2 8
18 18 17 17 17 17 17 18 20 18 21 25 9 5 4 3 9 5 6 13 8 7 4 4 8 5 4 3 3 8 9 7 14 21 21 10 8 14 17 13 9 16 15 11 8 17 15
18 18 17 17 16 16 17 18 19 17 19 21 3 6 4 3 4 4 7 8 10 11 8 8 11 11 8 4 3 2 2 2 7 18 20 15 12 6 8 19 21 8 9 4 7 9 15
18 19 18 17 15 17 18 17 16 14 17 8 4 5 4 2 4 2 5 5 3 6 13 13 5 14 13 8 8 6 8 5 1 10 13 14 13 14 14 7 8 24 20 18 11 12 5
19 16 16 17 14 17 17 16 15 11 10 5 7 5 2 4 5 4 4 6 6 9 8 9 16 12 10 14 8 10 12 11 13 5 8 10 9 11 14 16 9 9 17 20 18 14 17
18 17 17 15 15 17 16 17 14 10 8 4 4 5 2 4 2 4 4 6 6 6 12 14 7 7 8 8 10 4 7 5 6 12 5 8 6 11 16 19 15 16 12 16 19 16 15
18 17 17 16 16 15 17 15 13 7 7 2 3 4 2 4 2 8 4 5 10 6 4 3 9 18 13 14 16 19 15 16 15 9 5 8 10 16 20 21 23 23 22 21 19 22 20
19 19 18 18 16 16 16 16 13 7 3 2 4 3 4 6 9 9 6 5 8 4 4 8 7 3 12 14 15 12 17 15 14 1 12 7 5 8 15 25 23 27 26 23 23 24 20
18 18 18 17 17 17 19 17 11 5 3 2 1 3 3 5 5 5 4 4 3 9 7 12 11 10 10 11 8 9 14 14 10 6 9 7 6 5 8 17 20 22 25 24 20 21 21
19 19 19 19 19 20 19 17 12 8 8 2 2 1 3 6 7 7 9 14 16 14 14 12 16 9 3 13 17 13 12 16 14 15 7 8 5 3 3 4 10 15 23 25 24 20 18
22 21 20 20 19 18 19 17 15 12 10 3 2 2 3 7 9 13 14 13 14 12 15 20 16 16 10 8 7 8 6 7 13 9 7 7 7 4 3 7 7 5 5 13 22 22 14
24 23 21 20 19 18 18 16 15 13 9 4 4 3 3 3 7 11 9 7 9 9 9 6 8 10 3 4 5 7 10 10 10 12 8 11 8 6 3 5 7 2 2 4 2 14 13
21 21 20 20 18 17 17 16 14 10 12 5 4 6 3 5 10 16 11 9 7 5 6 7 8 6 2 3 6 6 9 4 11 15 10 6 4 2 6 5 6 7 9 2 10 4 3
20 19 19 19 16 16 15 14 14 12 10 5 4 6 4 5 14 20 22 15 11 6 4 8 9 1 3 4 4 2 4 2 3 4 7 7 6 2 4 4 12 14 2 6 5 5 8
19 18 18 14 14 12 12 11 8 10 9 7 4 3 5 6 9 16 19 20 21 22 11 4 5 8 4 3 2 4 2 1 1 6 0 6 4 9 10 5 11 9 2 3 5 8 11
Wind_Direction
6 6 4 3 2 1 359 356 355 352 350 348 345 343 340 336 332 328 322 318 315 315 315 309 305 307 289 227 249 298 55 51 161 179 193 185 182 179 196 190 154 220 180 183 177 171 170
2 1 0 359 359 357 355 353 351 349 347 345 343 341 337 334 331 325 319 316 314 313 309 304 290 276 220 257 236 118 97 132 161 186 180 190 199 210 172 160 202 157 120 111 144 151 155
358 357 356 356 356 354 352 350 348 345 344 343 341 339 335 332 329 323 317 315 315 311 305 295 250 208 218 247 144 259 265 212 175 193 171 202 168 218 154 141 131 140 119 108 138 153 148
355 353 352 352 351 350 349 348 345 344 342 341 339 337 334 331 329 322 315 315 312 307 296 265 168 207 247 203 217 251 219 191 181 202 190 158 165 117 250 125 105 136 154 170 168 173 151
352 351 350 349 348 348 348 347 345 344 341 339 337 336 333 329 328 322 317 314 314 333 109 139 165 233 260 307 239 342 190 158 142 216 120 123 185 134 157 153 140 186 185 199 167 195 155
348 348 348 347 347 347 345 345 343 342 340 338 335 333 331 328 327 323 321 311 264 59 164 221 259 253 240 163 266 182 170 155 133 144 160 142 134 186 162 189 200 183 202 197 181 181 190
346 344 343 343 345 345 344 343 340 339 338 337 333 333 332 329 326 324 328 316 251 165 216 244 258 270 273 264 266 138 147 166 116 139 172 175 197 199 193 196 215 191 207 192 171 170 189
341 340 338 337 341 342 343 341 337 336 335 335 332 331 332 329 325 322 289 37 73 59 302 252 252 257 263 306 259 207 168 183 170 176 133 173 216 203 199 203 198 202 211 203 150 162 199
337 335 336 338 338 338 339 337 335 333 331 332 332 331 334 332 323 330 322 132 22 258 259 286 225 231 213 194 222 224 176 165 180 168 185 209 206 194 200 200 197 212 208 189 194 179 160
334 331 331 332 331 331 334 334 333 331 329 330 330 328 336 336 300 336 300 121 333 241 288 265 238 239 168 169 215 209 191 162 173 195 169 213 203 192 197 212 203 208 214 202 184 176 227
329 327 327 329 329 327 326 330 332 330 329 327 326 322 330 333 293 284 23 329 313 198 300 126 178 120 156 193 126 188 184 193 188 166 182 190 189 192 200 207 201 224 181 195 194 197 207
324 320 322 326 328 327 320 325 331 330 328 325 321 318 326 336 245 256 301 307 222 201 244 268 191 188 175 219 209 118 168 188 177 178 206 211 197 196 200 203 198 146 125 94 144 201 221
317 323 322 320 319 324 320 324 329 328 328 325 319 316 307 258 227 249 324 251 197 226 5 207 191 181 329 196 210 184 177 181 175 185 197 202 217 214 195 199 198 197 171 168 192 198 226
318 318 321 320 320 322 324 319 322 323 326 324 319 314 282 215 234 256 291 189 220 204 219 359 202 288 278 217 220 189 182 190 194 185 186 203 216 208 197 208 188 198 199 202 206 205 213
311 309 312 314 317 320 323 323 316 320 326 323 318 327 275 239 217 197 199 216 212 199 202 230 266 270 263 222 242 196 202 208 193 192 195 199 223 202 205 191 179 177 209 215 221 21 225
302 307 310 311 312 313 317 319 320 320 328 325 319 320 267 334 157 171 215 233 221 214 204 202 221 207 226 201 242 203 191 186 199 201 194 181 207 207 198 195 188 206 175 189 213 217 229
293 298 304 308 313 317 317 317 317 325 331 324 309 309 28 130 187 215 223 233 236 240 232 223 230 236 237 219 229 255 224 242 203 193 202 188 216 156 176 207 199 171 183 210 235 233 230
306 304 298 300 304 311 313 314 317 327 336 344 342 292 83 194 225 203 240 207 263 244 224 236 244 238 228 216 244 255 244 255 191 144 185 201 207 219 215 205 240 222 214 208 214 191 225
302 304 301 300 303 310 312 313 316 332 356 331 310 281 308 224 245 224 278 275 264 253 223 200 221 230 224 244 247 237 236 248 243 251 181 165 211 213 230 238 201 225 226 223 229 245 213
300 295 297 298 300 304 308 314 311 319 337 324 303 305 242 217 300 287 335 275 263 289 253 242 233 212 218 227 231 241 214 256 250 228 187 177 177 217 224 231 233 227 226 217 221 225 222
300 296 295 293 291 295 300 305 305 301 339 312 226 260 353 311 188 324 289 292 288 282 290 252 220 235 222 233 235 235 242 266 282 268 247 207 213 215 227 228 215 222 228 218 217 235 231
302 298 295 294 291 293 292 288 299 294 3 240 287 318 339 287 292 288 259 238 256 302 292 277 242 241 247 234 238 246 226 231 240 246 212 195 224 218 243 230 224 221 220 225 222 226 230
305 302 298 294 289 287 287 288 290 287 156 215 277 260 275 271 288 280 260 298 296 347 270 255 314 326 287 274 285 276 279 272 275 262 198 193 197 177 242 231 218 231 223 220 226 223 210
296 296 296 299 297 296 295 291 290 278 191 170 235 221 270 270 255 262 284 299 294 296 276 277 302 281 255 323 303 261 245 239 235 234 225 169 141 217 292 155 213 236 224 218 213 214 216
289 287 289 291 293 296 296 290 285 276 203 190 179 180 237 270 278 283 272 279 296 290 269 276 278 263 310 294 264 236 182 184 217 195 185 221 134 161 226 242 271 234 169 213 214 234 225
289 289 289 286 285 292 293 285 278 274 246 195 197 176 227 267 247 259 303 296 290 292 285 274 306 320 237 245 225 234 198 193 169 154 163 100 102 143 110 257 252 187 56 357 298 226 186
293 294 291 286 286 286 293 285 279 255 257 198 216 179 223 245 255 267 267 285 287 301 290 299 337 321 316 218 219 230 227 226 172 190 174 181 112 144 122 251 274 3 324 235 187 185 193
297 294 292 289 283 278 287 282 283 274 257 178 238 182 221 258 270 262 267 265 280 278 288 324 320 65 276 262 256 183 250 155 196 154 174 160 154 83 106 206 256 0 260 243 26 72 107
298 296 291 293 290 281 283 278 287 283 266 203 237 173 212 240 273 296 275 261 252 249 266 253 300 325 279 320 339 282 266 321 36 179 348 172 192 134 130 312 326 320 353 63 73 72 67